N3285G KBHM-KHXD

Flight info

Callsign N3285G
Flight time 0h 51m
Altitude 39000
Route CHEHA LGC DBN
Aircraft C750/M-SBDE3FGHRWXY/S

Departure

Time 2026-04-26 02:04
Airport Birmingham-Shuttlesworth International Airport (KBHM)

Arrival

Time 2026-04-26 02:55
Airport Hilton Head Airport (KHXD)
Time Latitude Longitude Altitude Speed Heading
2026-04-26 01:41 33.56657 -86.74368 628 ft 0 kts 246°
2026-04-26 01:57 33.56649 -86.74390 638 ft 9 kts 246°
2026-04-26 01:57 33.56641 -86.74500 626 ft 17 kts 270°
2026-04-26 01:57 33.56641 -86.74644 626 ft 16 kts 270°
2026-04-26 01:57 33.56641 -86.74769 628 ft 14 kts 267°
2026-04-26 01:58 33.56605 -86.74873 632 ft 14 kts 256°
2026-04-26 01:58 33.56603 -86.74951 625 ft 14 kts 268°
2026-04-26 01:58 33.56569 -86.75061 625 ft 14 kts 235°
2026-04-26 01:58 33.56515 -86.75154 627 ft 14 kts 235°
2026-04-26 01:59 33.56452 -86.75263 624 ft 16 kts 235°
2026-04-26 01:59 33.56390 -86.75370 629 ft 14 kts 235°
2026-04-26 01:59 33.56338 -86.75460 627 ft 12 kts 236°
2026-04-26 01:59 33.56282 -86.75558 626 ft 19 kts 236°
2026-04-26 02:00 33.56196 -86.75709 627 ft 22 kts 236°
2026-04-26 02:00 33.56108 -86.75864 622 ft 23 kts 236°
2026-04-26 02:00 33.56017 -86.76023 616 ft 23 kts 235°
2026-04-26 02:00 33.55920 -86.76190 612 ft 25 kts 235°
2026-04-26 02:01 33.55822 -86.76359 612 ft 24 kts 235°
2026-04-26 02:01 33.55725 -86.76526 616 ft 24 kts 235°
2026-04-26 02:01 33.55632 -86.76685 602 ft 23 kts 235°
2026-04-26 02:01 33.55539 -86.76846 599 ft 23 kts 235°
2026-04-26 02:02 33.55447 -86.77005 594 ft 22 kts 235°
2026-04-26 02:02 33.55423 -86.77062 592 ft 0 kts 268°
2026-04-26 02:02 33.55423 -86.77070 592 ft 3 kts 268°
2026-04-26 02:03 33.55459 -86.77122 591 ft 13 kts 330°
2026-04-26 02:03 33.55520 -86.77083 594 ft 15 kts 54°
2026-04-26 02:03 33.55762 -86.76665 603 ft 117 kts 56°
2026-04-26 02:03 33.56321 -86.75686 887 ft 151 kts 56°
2026-04-26 02:04 33.56928 -86.74568 1344 ft 174 kts 56°
2026-04-26 02:04 33.57429 -86.73109 1528 ft 211 kts 84°
2026-04-26 02:04 33.57114 -86.71314 2130 ft 223 kts 107°
2026-04-26 02:04 33.56639 -86.69574 3274 ft 215 kts 106°
2026-04-26 02:05 33.56176 -86.67826 3990 ft 229 kts 106°
2026-04-26 02:05 33.55685 -86.65973 4005 ft 235 kts 106°
2026-04-26 02:05 33.55194 -86.64117 3998 ft 233 kts 106°
2026-04-26 02:05 33.54708 -86.62269 3990 ft 232 kts 106°
2026-04-26 02:06 33.54215 -86.60392 4014 ft 250 kts 106°
2026-04-26 02:06 33.53596 -86.58309 4477 ft 277 kts 113°
2026-04-26 02:06 33.52683 -86.56278 5532 ft 278 kts 119°
2026-04-26 02:06 33.51744 -86.54219 6398 ft 286 kts 116°
2026-04-26 02:07 33.50869 -86.52053 7292 ft 291 kts 114°
2026-04-26 02:07 33.49991 -86.49855 8299 ft 295 kts 116°
2026-04-26 02:07 33.49063 -86.47631 9281 ft 301 kts 116°
2026-04-26 02:07 33.48113 -86.45370 10145 ft 307 kts 116°
2026-04-26 02:08 33.47142 -86.43032 10486 ft 331 kts 116°
2026-04-26 02:08 33.46080 -86.40461 10601 ft 358 kts 116°
2026-04-26 02:08 33.44938 -86.37712 10966 ft 372 kts 116°
2026-04-26 02:08 33.43783 -86.34938 11767 ft 374 kts 116°
2026-04-26 02:09 33.42614 -86.32133 12441 ft 379 kts 117°
2026-04-26 02:09 33.41431 -86.29293 13138 ft 383 kts 117°
2026-04-26 02:09 33.40235 -86.26422 13816 ft 387 kts 117°
2026-04-26 02:09 33.39026 -86.23527 14398 ft 391 kts 117°
2026-04-26 02:10 33.37801 -86.20592 14976 ft 395 kts 117°
2026-04-26 02:10 33.36747 -86.17532 15500 ft 400 kts 111°
2026-04-26 02:10 33.35751 -86.14408 16105 ft 404 kts 112°
2026-04-26 02:10 33.34713 -86.11258 16703 ft 409 kts 112°
2026-04-26 02:11 33.33668 -86.08071 17320 ft 414 kts 112°
2026-04-26 02:11 33.32630 -86.04845 17951 ft 419 kts 112°
2026-04-26 02:11 33.31577 -86.01581 18523 ft 424 kts 112°
2026-04-26 02:11 33.30502 -85.98291 19127 ft 427 kts 112°
2026-04-26 02:12 33.29415 -85.94966 19748 ft 431 kts 112°
2026-04-26 02:12 33.28324 -85.91613 20361 ft 435 kts 112°
2026-04-26 02:12 33.27220 -85.88222 20984 ft 440 kts 112°
2026-04-26 02:12 33.26104 -85.84805 21602 ft 444 kts 112°
2026-04-26 02:13 33.24973 -85.81353 22218 ft 449 kts 112°
2026-04-26 02:13 33.23829 -85.77857 22829 ft 453 kts 111°
2026-04-26 02:13 33.22675 -85.74332 23443 ft 458 kts 111°
2026-04-26 02:13 33.21509 -85.70779 23956 ft 462 kts 111°
2026-04-26 02:14 33.20331 -85.67192 24478 ft 466 kts 111°
2026-04-26 02:14 33.19159 -85.63629 24991 ft 469 kts 111°
2026-04-26 02:14 33.17960 -85.59986 25494 ft 473 kts 112°
2026-04-26 02:14 33.16750 -85.56315 25998 ft 477 kts 112°
2026-04-26 02:15 33.15530 -85.52619 26502 ft 481 kts 112°
2026-04-26 02:15 33.14298 -85.48891 27003 ft 485 kts 112°
2026-04-26 02:15 33.13057 -85.45136 27500 ft 489 kts 112°
2026-04-26 02:15 33.11803 -85.41344 28004 ft 493 kts 112°
2026-04-26 02:16 33.10535 -85.37523 28483 ft 497 kts 112°
2026-04-26 02:16 33.09255 -85.33675 28972 ft 501 kts 112°
2026-04-26 02:16 33.07965 -85.29793 29439 ft 505 kts 112°
2026-04-26 02:16 33.06668 -85.25889 29895 ft 509 kts 112°
2026-04-26 02:17 33.05360 -85.21953 30287 ft 513 kts 112°
2026-04-26 02:17 33.04335 -85.17866 30632 ft 517 kts 103°
2026-04-26 02:17 33.03545 -85.13682 31154 ft 517 kts 102°
2026-04-26 02:17 33.02788 -85.09544 31782 ft 515 kts 102°
2026-04-26 02:18 33.01969 -85.05392 32345 ft 515 kts 103°
2026-04-26 02:18 33.01126 -85.01257 32996 ft 512 kts 103°
2026-04-26 02:18 33.00318 -84.97135 33665 ft 510 kts 102°
2026-04-26 02:18 32.99534 -84.93012 34229 ft 509 kts 102°
2026-04-26 02:19 32.98733 -84.88912 34757 ft 509 kts 102°
2026-04-26 02:19 32.97910 -84.84811 35294 ft 508 kts 102°
2026-04-26 02:19 32.97100 -84.80731 35837 ft 507 kts 102°
2026-04-26 02:19 32.96300 -84.76639 36391 ft 506 kts 102°
2026-04-26 02:20 32.95500 -84.72563 36960 ft 505 kts 102°
2026-04-26 02:20 32.94690 -84.68505 37527 ft 504 kts 102°
2026-04-26 02:20 32.93879 -84.64445 38134 ft 502 kts 103°
2026-04-26 02:20 32.93080 -84.60419 38777 ft 499 kts 103°
2026-04-26 02:21 32.92278 -84.56374 38896 ft 507 kts 103°
2026-04-26 02:21 32.91452 -84.52245 38897 ft 518 kts 103°
2026-04-26 02:21 32.90605 -84.48024 38899 ft 529 kts 103°
2026-04-26 02:22 32.88868 -84.39355 38907 ft 548 kts 103°
2026-04-26 02:22 32.87072 -84.30444 38963 ft 557 kts 103°
2026-04-26 02:23 32.85277 -84.21565 38959 ft 555 kts 104°
2026-04-26 02:23 32.83462 -84.12631 38944 ft 556 kts 104°
2026-04-26 02:24 32.81643 -84.03703 38928 ft 556 kts 104°
2026-04-26 02:24 32.79816 -83.94773 38911 ft 556 kts 104°
2026-04-26 02:25 32.77989 -83.85879 38921 ft 550 kts 105°
2026-04-26 02:25 32.76165 -83.77035 38929 ft 551 kts 105°
2026-04-26 02:26 32.74336 -83.68195 38932 ft 551 kts 105°
2026-04-26 02:26 32.72498 -83.59349 38913 ft 551 kts 105°
2026-04-26 02:27 32.70648 -83.50475 38913 ft 554 kts 106°
2026-04-26 02:27 32.68787 -83.41587 38892 ft 555 kts 106°
2026-04-26 02:28 32.66932 -83.32760 38902 ft 555 kts 106°
2026-04-26 02:28 32.65057 -83.23872 38918 ft 555 kts 106°
2026-04-26 02:29 32.63178 -83.14997 38927 ft 555 kts 106°
2026-04-26 02:29 32.61292 -83.06120 38942 ft 555 kts 107°
2026-04-26 02:30 32.59402 -82.97259 38943 ft 554 kts 107°
2026-04-26 02:30 32.57531 -82.88501 38157 ft 534 kts 107°
2026-04-26 02:30 32.56645 -82.84287 37448 ft 518 kts 105°
2026-04-26 02:31 32.56130 -82.80118 36768 ft 505 kts 96°
2026-04-26 02:31 32.55919 -82.75994 36111 ft 497 kts 94°
2026-04-26 02:31 32.55765 -82.71916 35450 ft 496 kts 95°
2026-04-26 02:31 32.55536 -82.67835 34797 ft 497 kts 96°
2026-04-26 02:32 32.55258 -82.63743 34133 ft 498 kts 96°
2026-04-26 02:32 32.55017 -82.59633 33426 ft 499 kts 95°
2026-04-26 02:32 32.54812 -82.55514 32762 ft 502 kts 95°
2026-04-26 02:32 32.54589 -82.51423 32106 ft 504 kts 95°
2026-04-26 02:33 32.54330 -82.47255 31437 ft 506 kts 95°
2026-04-26 02:33 32.54078 -82.43086 30772 ft 509 kts 94°
2026-04-26 02:33 32.53844 -82.38889 30104 ft 509 kts 94°
2026-04-26 02:33 32.53610 -82.34737 29398 ft 500 kts 94°
2026-04-26 02:34 32.53363 -82.30647 28746 ft 495 kts 94°
2026-04-26 02:34 32.53116 -82.26594 28101 ft 490 kts 94°
2026-04-26 02:34 32.52880 -82.22597 27464 ft 484 kts 94°
2026-04-26 02:34 32.52647 -82.18635 26832 ft 479 kts 94°
2026-04-26 02:35 32.52411 -82.14718 26207 ft 474 kts 94°
2026-04-26 02:35 32.52173 -82.10841 25588 ft 469 kts 94°
2026-04-26 02:35 32.51940 -82.07007 24975 ft 464 kts 94°
2026-04-26 02:35 32.51709 -82.03214 24366 ft 459 kts 94°
2026-04-26 02:36 32.51479 -81.99457 23762 ft 454 kts 94°
2026-04-26 02:36 32.51248 -81.95743 23118 ft 449 kts 94°
2026-04-26 02:36 32.51023 -81.92119 22522 ft 446 kts 94°
2026-04-26 02:36 32.50796 -81.88473 21940 ft 442 kts 93°
2026-04-26 02:37 32.50570 -81.84861 21364 ft 438 kts 93°
2026-04-26 02:37 32.50344 -81.81276 20789 ft 434 kts 93°
2026-04-26 02:37 32.50120 -81.77730 20220 ft 430 kts 93°
2026-04-26 02:37 32.49897 -81.74215 19656 ft 426 kts 93°
2026-04-26 02:38 32.49675 -81.70727 19097 ft 423 kts 93°
2026-04-26 02:38 32.49453 -81.67266 18542 ft 419 kts 93°
2026-04-26 02:38 32.49232 -81.63840 17963 ft 416 kts 93°
2026-04-26 02:38 32.49013 -81.60435 17401 ft 412 kts 93°
2026-04-26 02:39 32.48794 -81.57066 16859 ft 409 kts 93°
2026-04-26 02:39 32.48576 -81.53720 16306 ft 406 kts 94°
2026-04-26 02:39 32.48359 -81.50401 15773 ft 402 kts 94°
2026-04-26 02:39 32.48143 -81.47107 15254 ft 399 kts 94°
2026-04-26 02:40 32.47931 -81.43886 14751 ft 396 kts 94°
2026-04-26 02:40 32.47716 -81.40646 14243 ft 393 kts 94°
2026-04-26 02:40 32.47503 -81.37432 13741 ft 390 kts 95°
2026-04-26 02:40 32.47290 -81.34241 13205 ft 387 kts 95°
2026-04-26 02:41 32.47078 -81.31083 12707 ft 384 kts 95°
2026-04-26 02:41 32.46867 -81.27943 12203 ft 381 kts 95°
2026-04-26 02:41 32.46657 -81.24830 11778 ft 379 kts 95°
2026-04-26 02:41 32.46448 -81.21739 11302 ft 374 kts 95°
2026-04-26 02:42 32.46247 -81.18756 10865 ft 351 kts 96°
2026-04-26 02:42 32.46058 -81.15975 10487 ft 318 kts 96°
2026-04-26 02:42 32.45883 -81.13424 10166 ft 310 kts 96°
2026-04-26 02:42 32.45708 -81.10912 9787 ft 303 kts 96°
2026-04-26 02:43 32.45373 -81.06032 9022 ft 293 kts 96°
2026-04-26 02:43 32.45207 -81.03639 8650 ft 291 kts 96°
2026-04-26 02:43 32.45042 -81.01270 8285 ft 288 kts 96°
2026-04-26 02:44 32.44879 -80.98917 7911 ft 286 kts 96°
2026-04-26 02:44 32.44715 -80.96585 7544 ft 283 kts 96°
2026-04-26 02:44 32.44554 -80.94267 7178 ft 281 kts 96°
2026-04-26 02:44 32.44393 -80.91976 6818 ft 279 kts 96°
2026-04-26 02:45 32.44235 -80.89723 6463 ft 277 kts 96°
2026-04-26 02:45 32.44075 -80.87464 6094 ft 274 kts 96°
2026-04-26 02:45 32.43916 -80.85219 5736 ft 272 kts 96°
2026-04-26 02:45 32.43759 -80.82998 5386 ft 270 kts 96°
2026-04-26 02:46 32.43602 -80.80785 5029 ft 269 kts 96°
2026-04-26 02:46 32.43449 -80.78631 4691 ft 253 kts 96°
2026-04-26 02:46 32.43307 -80.76622 4390 ft 239 kts 96°
2026-04-26 02:46 32.43214 -80.75332 4201 ft 237 kts 96°
2026-04-26 02:47 32.43074 -80.73396 3909 ft 236 kts 96°
2026-04-26 02:47 32.42935 -80.71456 3602 ft 235 kts 96°
2026-04-26 02:47 32.42797 -80.69530 3298 ft 234 kts 96°
2026-04-26 02:47 32.42661 -80.67641 2973 ft 228 kts 97°
2026-04-26 02:48 32.42539 -80.65912 2696 ft 193 kts 98°
2026-04-26 02:48 32.42429 -80.64390 2482 ft 184 kts 98°
2026-04-26 02:48 32.42317 -80.62892 2253 ft 182 kts 99°
2026-04-26 02:48 32.41963 -80.61504 1974 ft 172 kts 128°
2026-04-26 02:49 32.41156 -80.60536 1768 ft 160 kts 154°
2026-04-26 02:49 32.40133 -80.60102 1759 ft 154 kts 178°
2026-04-26 02:49 32.39100 -80.60252 1776 ft 147 kts 198°
2026-04-26 02:49 32.38268 -80.60652 1760 ft 115 kts 207°
2026-04-26 02:50 32.37554 -80.61037 1765 ft 112 kts 210°
2026-04-26 02:50 32.36856 -80.61432 1753 ft 110 kts 210°
2026-04-26 02:50 32.36171 -80.61829 1762 ft 109 kts 210°
2026-04-26 02:50 32.35476 -80.62231 1762 ft 111 kts 209°
2026-04-26 02:51 32.34785 -80.62630 1772 ft 111 kts 209°
2026-04-26 02:51 32.34098 -80.63027 1795 ft 108 kts 210°
2026-04-26 02:51 32.33414 -80.63423 1803 ft 110 kts 209°
2026-04-26 02:51 32.32734 -80.63816 1800 ft 107 kts 210°
2026-04-26 02:52 32.32041 -80.64212 1739 ft 113 kts 208°
2026-04-26 02:52 32.31305 -80.64588 1475 ft 116 kts 207°
2026-04-26 02:52 32.30578 -80.64973 1289 ft 116 kts 208°
2026-04-26 02:52 32.29872 -80.65428 1067 ft 116 kts 210°
2026-04-26 02:53 32.29153 -80.65887 847 ft 119 kts 206°
2026-04-26 02:53 32.28410 -80.66318 656 ft 119 kts 206°
2026-04-26 02:53 32.27630 -80.66753 533 ft 131 kts 204°
2026-04-26 02:53 32.26803 -80.67207 576 ft 131 kts 205°
2026-04-26 02:54 32.25972 -80.67689 543 ft 130 kts 206°
2026-04-26 02:54 32.25198 -80.68133 341 ft 118 kts 207°
2026-04-26 02:54 32.24512 -80.68545 261 ft 107 kts 206°
2026-04-26 02:54 32.23844 -80.68934 182 ft 108 kts 206°
2026-04-26 02:55 32.23169 -80.69319 73 ft 106 kts 207°
2026-04-26 02:55 32.22560 -80.69679 28 ft 75 kts 206°
2026-04-26 02:55 32.22251 -80.69854 27 ft 37 kts 206°
2026-04-26 02:55 32.22031 -80.69982 27 ft 33 kts 206°
2026-04-26 02:56 32.21901 -80.70017 28 ft 12 kts 127°
2026-04-26 02:56 32.21907 -80.69947 28 ft 10 kts 30°
2026-04-26 02:56 32.21966 -80.69911 28 ft 10 kts 27°
2026-04-26 02:56 32.22027 -80.69874 27 ft 10 kts 27°
2026-04-26 02:57 32.22073 -80.69800 27 ft 12 kts 65°
2026-04-26 02:57 32.22079 -80.69794 27 ft 0 kts 24°